Simultaneous Nadir Overpasses (SNOs) Predictions

Prediction of SNOs between GOES-15 and METOP-A Satellite Orbit:

Table of predicted SNOs for the next 14.0 days since TLE Epoch: 11/17/2012
Index Date Time (GOES-15) GOES-15 Lat,Lon METOP-A Lat,Lon Distance(km) Time Diff (sec)
1 11/18/2012 06:40:06 0.23,-134.71 -0.34,-137.17 280.27 80
2 11/19/2012 06:16:46 0.24,-134.76 0.81,-132.17 294.17 80
3 11/20/2012 18:38:15 -0.22,-134.86 0.18,-136.73 212.73 80
4 11/21/2012 18:14:54 -0.23,-134.91 -0.95,-131.73 361.99 80
5 11/23/2012 06:36:30 0.21,-134.94 -0.08,-136.32 156.28 80
6 11/24/2012 06:13:09 0.22,-134.98 1.07,-131.32 418.11 80
7 11/25/2012 18:34:36 -0.21,-135.08 -0.04,-135.86 89.18 80
8 11/26/2012 18:11:14 -0.22,-135.12 -1.16,-130.86 485.27 80
9 11/28/2012 06:32:49 0.20,-135.14 0.16,-135.44 33.34 80
10 11/30/2012 18:28:12 -0.19,-135.26 -0.23,-134.97 32.81 80




NCC Satellite Simultaneous Nadir Overpasses (SNOs) Prediction Service
